Time,TemperatureF,DewpointF,PressureIn,WindDirection,WindDirectionDegrees,WindSpeedMPH,WindSpeedGustMPH,Humidity,HourlyPrecipIn,Conditions,Clouds,dailyrainin,SoftwareType,DateUTC
2013-06-13 00:01:00,75.0,73.0,29.83,North,0,0.0,0.0,95,0.00,,,0.00,,2013-06-13 04:01:00,
2013-06-13 00:12:00,75.0,73.0,29.83,North,0,0.0,0.0,95,0.00,,,0.00,,2013-06-13 04:12:00,
2013-06-13 00:22:00,74.0,72.0,29.82,North,0,0.0,0.0,95,0.00,,,0.00,,2013-06-13 04:22:00,
2013-06-13 00:32:00,74.0,72.0,29.82,North,0,0.0,0.0,95,0.00,,,0.00,,2013-06-13 04:32:00,
2013-06-13 00:43:00,74.0,72.0,29.82,North,0,0.0,0.0,95,0.00,,,0.00,,2013-06-13 04:43:00,
2013-06-13 00:53:00,74.0,72.0,29.81,North,0,0.0,0.0,95,0.00,,,0.00,,2013-06-13 04:53:00,
2013-06-13 01:02:00,74.0,72.0,29.81,North,0,0.0,0.0,95,0.00,,,0.00,,2013-06-13 05:02:00,
2013-06-13 01:12:00,74.0,72.0,29.81,North,0,0.0,0.0,95,0.00,,,0.00,,2013-06-13 05:12:00,
2013-06-13 01:24:00,74.0,73.0,29.81,North,0,0.0,0.0,96,0.00,,,0.00,,2013-06-13 05:24:00,
2013-06-13 01:33:00,74.0,73.0,29.81,North,0,0.0,0.0,96,0.00,,,0.00,,2013-06-13 05:33:00,
2013-06-13 01:43:00,74.0,73.0,29.80,North,0,0.0,0.0,96,0.00,,,0.00,,2013-06-13 05:43:00,
2013-06-13 01:53:00,73.0,72.0,29.80,North,0,0.0,0.0,96,0.00,,,0.00,,2013-06-13 05:53:00,
2013-06-13 02:02:00,73.0,72.0,29.80,North,0,0.0,0.0,96,0.00,,,0.00,,2013-06-13 06:02:00,
2013-06-13 02:11:00,73.0,72.0,29.80,North,0,0.0,0.0,96,0.00,,,0.00,,2013-06-13 06:11:00,
2013-06-13 02:22:00,73.0,72.0,29.80,North,0,0.0,0.0,96,0.00,,,0.00,,2013-06-13 06:22:00,
2013-06-13 02:33:00,73.0,72.0,29.80,North,0,0.0,0.0,97,0.00,,,0.00,,2013-06-13 06:33:00,
2013-06-13 02:44:00,73.0,72.0,29.79,North,0,0.0,0.0,97,0.00,,,0.00,,2013-06-13 06:44:00,
2013-06-13 02:52:00,73.0,72.0,29.79,North,0,0.0,0.0,97,0.00,,,0.00,,2013-06-13 06:52:00,
2013-06-13 03:02:00,73.0,72.0,29.79,North,0,0.0,0.0,97,0.00,,,0.00,,2013-06-13 07:02:00,
2013-06-13 03:12:00,73.0,72.0,29.79,North,0,0.0,0.0,97,0.00,,,0.00,,2013-06-13 07:12:00,
2013-06-13 03:22:00,73.0,72.0,29.78,North,0,0.0,0.0,97,0.00,,,0.00,,2013-06-13 07:22:00,
2013-06-13 03:33:00,73.0,72.0,29.78,North,0,0.0,0.0,97,0.00,,,0.00,,2013-06-13 07:33:00,
2013-06-13 03:42:00,73.0,72.0,29.78,North,0,0.0,0.0,97,0.00,,,0.00,,2013-06-13 07:42:00,
2013-06-13 03:52:00,73.0,72.0,29.78,North,0,0.0,0.0,97,0.00,,,0.00,,2013-06-13 07:52:00,
2013-06-13 04:01:00,73.0,72.0,29.78,North,0,0.0,0.0,97,0.00,,,0.00,,2013-06-13 08:01:00,
2013-06-13 04:11:00,73.0,72.0,29.78,North,0,0.0,0.0,97,0.00,,,0.00,,2013-06-13 08:11:00,
2013-06-13 04:22:00,73.0,72.0,29.77,North,0,0.0,0.0,97,0.00,,,0.00,,2013-06-13 08:22:00,
2013-06-13 04:32:00,73.0,72.0,29.77,North,0,0.0,0.0,97,0.00,,,0.00,,2013-06-13 08:32:00,
2013-06-13 04:43:00,73.0,72.0,29.77,North,0,0.0,0.0,97,0.00,,,0.00,,2013-06-13 08:43:00,
2013-06-13 04:52:00,73.0,72.0,29.76,North,0,0.0,0.0,97,0.00,,,0.00,,2013-06-13 08:52:00,
2013-06-13 05:02:00,73.0,72.0,29.76,North,0,0.0,0.0,97,0.00,,,0.00,,2013-06-13 09:02:00,
2013-06-13 05:12:00,73.0,72.0,29.76,North,0,0.0,0.0,97,0.00,,,0.00,,2013-06-13 09:12:00,
2013-06-13 05:22:00,73.0,72.0,29.76,North,0,0.0,0.0,97,0.00,,,0.00,,2013-06-13 09:22:00,
2013-06-13 05:32:00,73.0,72.0,29.76,North,0,0.0,0.0,97,0.00,,,0.00,,2013-06-13 09:32:00,
2013-06-13 05:42:00,72.0,71.0,29.75,North,0,0.0,0.0,97,0.00,,,0.00,,2013-06-13 09:42:00,
2013-06-13 05:52:00,72.0,71.0,29.75,North,0,0.0,0.0,97,0.00,,,0.00,,2013-06-13 09:52:00,
2013-06-13 06:01:00,72.0,71.0,29.75,North,0,0.0,0.0,97,0.00,,,0.00,,2013-06-13 10:01:00,
2013-06-13 06:12:00,72.0,71.0,29.75,North,0,0.0,0.0,97,0.00,,,0.00,,2013-06-13 10:12:00,
2013-06-13 06:22:00,72.0,71.0,29.74,North,0,0.0,0.0,97,0.00,,,0.00,,2013-06-13 10:22:00,
2013-06-13 06:33:00,72.0,71.0,29.74,North,0,0.0,0.0,97,0.00,,,0.00,,2013-06-13 10:33:00,
2013-06-13 06:43:00,72.0,71.0,29.74,North,0,0.0,0.0,97,0.00,,,0.00,,2013-06-13 10:43:00,
2013-06-13 06:53:00,72.0,71.0,29.73,North,0,0.0,0.0,97,0.00,,,0.00,,2013-06-13 10:53:00,
2013-06-13 07:02:00,71.0,70.0,29.74,North,0,0.0,0.0,97,0.00,,,0.00,,2013-06-13 11:02:00,
2013-06-13 07:12:00,71.0,70.0,29.75,North,0,0.0,0.0,97,0.00,,,0.00,,2013-06-13 11:12:00,
2013-06-13 07:24:00,71.0,70.0,29.75,North,0,0.0,0.0,97,0.00,,,0.00,,2013-06-13 11:24:00,
2013-06-13 07:32:00,71.0,70.0,29.75,North,0,0.0,0.0,97,0.00,,,0.00,,2013-06-13 11:32:00,
2013-06-13 07:42:00,71.0,70.0,29.75,North,0,0.0,0.0,97,0.00,,,0.00,,2013-06-13 11:42:00,
2013-06-13 07:52:00,73.0,72.0,29.74,North,0,0.0,0.0,98,0.00,,,0.00,,2013-06-13 11:52:00,
2013-06-13 08:02:00,74.0,73.0,29.74,North,0,0.0,0.0,98,0.00,,,0.00,,2013-06-13 12:02:00,
2013-06-13 08:12:00,74.0,73.0,29.74,North,0,0.0,0.0,98,0.00,,,0.00,,2013-06-13 12:12:00,
2013-06-13 08:22:00,75.0,74.0,29.74,North,0,0.0,4.0,96,0.00,,,0.00,,2013-06-13 12:22:00,
2013-06-13 08:35:00,77.0,75.0,29.74,North,0,0.0,3.0,94,0.00,,,0.00,,2013-06-13 12:35:00,
2013-06-13 08:43:00,77.0,75.0,29.74,North,0,0.0,3.0,94,0.00,,,0.00,,2013-06-13 12:43:00,
2013-06-13 08:52:00,77.0,75.0,29.74,North,0,0.0,3.0,94,0.00,,,0.00,,2013-06-13 12:52:00,
2013-06-13 09:02:00,79.0,76.0,29.74,SE,140,1.0,4.0,90,0.00,,,0.00,,2013-06-13 13:02:00,
2013-06-13 09:11:00,79.0,75.0,29.74,SE,138,1.0,6.0,89,0.00,,,0.00,,2013-06-13 13:11:00,
2013-06-13 09:22:00,79.0,75.0,29.74,SE,138,1.0,6.0,89,0.00,,,0.00,,2013-06-13 13:22:00,
2013-06-13 09:33:00,79.0,75.0,29.74,SE,138,1.0,6.0,89,0.00,,,0.00,,2013-06-13 13:33:00,
2013-06-13 09:43:00,83.0,77.0,29.73,SE,138,1.0,6.0,82,0.00,,,0.00,,2013-06-13 13:43:00,
2013-06-13 09:53:00,83.0,77.0,29.73,SE,138,1.0,6.0,82,0.00,,,0.00,,2013-06-13 13:53:00,
2013-06-13 10:02:00,83.0,76.0,29.73,North,0,0.0,6.0,79,0.00,,,0.00,,2013-06-13 14:02:00,
2013-06-13 10:11:00,84.0,77.0,29.72,SE,144,1.0,5.0,79,0.00,,,0.00,,2013-06-13 14:11:00,
2013-06-13 10:22:00,84.0,77.0,29.72,SE,144,1.0,5.0,79,0.00,,,0.00,,2013-06-13 14:22:00,
2013-06-13 10:33:00,85.0,77.0,29.72,SE,142,1.0,5.0,76,0.00,,,0.00,,2013-06-13 14:33:00,
2013-06-13 10:43:00,87.0,77.0,29.72,North,0,0.0,4.0,73,0.00,,,0.00,,2013-06-13 14:43:00,
2013-06-13 10:53:00,87.0,77.0,29.72,North,0,0.0,4.0,73,0.00,,,0.00,,2013-06-13 14:53:00,
2013-06-13 11:02:00,88.0,77.0,29.72,North,0,0.0,3.0,69,0.00,,,0.00,,2013-06-13 15:02:00,
2013-06-13 11:12:00,88.0,77.0,29.72,North,0,0.0,3.0,69,0.00,,,0.00,,2013-06-13 15:12:00,
2013-06-13 11:22:00,89.0,76.0,29.71,North,0,0.0,4.0,66,0.00,,,0.00,,2013-06-13 15:22:00,
2013-06-13 11:33:00,89.0,75.0,29.70,SE,137,1.0,7.0,63,0.00,,,0.00,,2013-06-13 15:33:00,
2013-06-13 11:43:00,89.0,75.0,29.70,SE,137,1.0,7.0,63,0.00,,,0.00,,2013-06-13 15:43:00,
2013-06-13 11:53:00,89.0,75.0,29.70,ESE,119,1.0,6.0,64,0.00,,,0.00,,2013-06-13 15:53:00,
2013-06-13 12:02:00,90.0,76.0,29.69,SE,130,1.0,7.0,64,0.00,,,0.00,,2013-06-13 16:02:00,
2013-06-13 12:12:00,90.0,75.0,29.68,SSE,168,1.0,8.0,61,0.00,,,0.00,,2013-06-13 16:12:00,
2013-06-13 12:22:00,90.0,75.0,29.67,South,169,3.0,8.0,62,0.00,,,0.00,,2013-06-13 16:22:00,
2013-06-13 12:33:00,90.0,74.0,29.66,SSE,149,4.0,9.0,60,0.00,,,0.00,,2013-06-13 16:33:00,
2013-06-13 12:43:00,90.0,74.0,29.66,SSE,149,4.0,9.0,60,0.00,,,0.00,,2013-06-13 16:43:00,
2013-06-13 12:53:00,90.0,75.0,29.66,SE,146,3.0,10.0,62,0.00,,,0.00,,2013-06-13 16:53:00,
2013-06-13 13:02:00,91.0,76.0,29.66,SSE,157,1.0,7.0,62,0.00,,,0.00,,2013-06-13 17:02:00,
2013-06-13 13:12:00,91.0,76.0,29.65,North,0,0.0,7.0,61,0.00,,,0.00,,2013-06-13 17:12:00,
2013-06-13 13:24:00,91.0,76.0,29.64,SSE,166,5.0,10.0,62,0.00,,,0.00,,2013-06-13 17:24:00,
2013-06-13 13:33:00,91.0,76.0,29.64,SSE,166,5.0,10.0,62,0.00,,,0.00,,2013-06-13 17:33:00,
2013-06-13 13:43:00,91.0,75.0,29.62,SE,143,3.0,11.0,60,0.00,,,0.00,,2013-06-13 17:43:00,
2013-06-13 13:53:00,91.0,75.0,29.62,SE,143,3.0,11.0,60,0.00,,,0.00,,2013-06-13 17:53:00,
2013-06-13 14:02:00,91.0,75.0,29.62,SSE,150,5.0,12.0,59,0.00,,,0.00,,2013-06-13 18:02:00,
2013-06-13 14:11:00,92.0,77.0,29.61,SSE,152,3.0,10.0,61,0.00,,,0.00,,2013-06-13 18:11:00,
2013-06-13 14:22:00,92.0,77.0,29.61,SSE,152,3.0,10.0,61,0.00,,,0.00,,2013-06-13 18:22:00,
2013-06-13 14:33:00,92.0,74.0,29.61,SSE,163,1.0,13.0,56,0.00,,,0.00,,2013-06-13 18:33:00,
2013-06-13 14:43:00,92.0,74.0,29.60,SSE,168,2.0,9.0,56,0.00,,,0.00,,2013-06-13 18:43:00,
2013-06-13 14:52:00,92.0,74.0,29.60,SSE,168,2.0,9.0,56,0.00,,,0.00,,2013-06-13 18:52:00,
2013-06-13 15:02:00,92.0,73.0,29.59,South,179,2.0,15.0,55,0.00,,,0.00,,2013-06-13 19:02:00,
2013-06-13 15:11:00,92.0,74.0,29.59,ESE,118,2.0,12.0,56,0.00,,,0.00,,2013-06-13 19:11:00,
2013-06-13 15:22:00,93.0,75.0,29.59,SE,142,1.0,8.0,57,0.00,,,0.00,,2013-06-13 19:22:00,
2013-06-13 15:33:00,93.0,75.0,29.59,SE,142,1.0,8.0,57,0.00,,,0.00,,2013-06-13 19:33:00,
2013-06-13 15:43:00,93.0,73.0,29.60,ESE,116,1.0,11.0,53,0.00,,,0.00,,2013-06-13 19:43:00,
2013-06-13 15:53:00,93.0,73.0,29.60,ESE,116,1.0,11.0,53,0.00,,,0.00,,2013-06-13 19:53:00,
2013-06-13 16:02:00,93.0,74.0,29.59,North,0,0.0,8.0,55,0.00,,,0.00,,2013-06-13 20:02:00,
2013-06-13 16:11:00,93.0,73.0,29.58,SSE,165,3.0,11.0,52,0.00,,,0.00,,2013-06-13 20:11:00,
2013-06-13 16:22:00,93.0,73.0,29.58,SSE,165,3.0,11.0,52,0.00,,,0.00,,2013-06-13 20:22:00,
2013-06-13 16:33:00,93.0,74.0,29.57,SSE,148,3.0,10.0,54,0.00,,,0.00,,2013-06-13 20:33:00,
2013-06-13 16:44:00,93.0,73.0,29.56,SE,136,3.0,14.0,52,0.00,,,0.00,,2013-06-13 20:44:00,
2013-06-13 16:53:00,92.0,73.0,29.54,SE,145,1.0,9.0,55,0.00,,,0.00,,2013-06-13 20:53:00,
2013-06-13 17:02:00,92.0,73.0,29.55,SE,146,2.0,9.0,55,0.00,,,0.00,,2013-06-13 21:02:00,
2013-06-13 17:11:00,92.0,74.0,29.55,ESE,103,2.0,10.0,56,0.00,,,0.00,,2013-06-13 21:11:00,
2013-06-13 17:22:00,92.0,74.0,29.55,North,0,0.0,8.0,56,0.00,,,0.00,,2013-06-13 21:22:00,
2013-06-13 17:34:00,91.0,74.0,29.57,North,0,0.0,6.0,57,0.00,,,0.00,,2013-06-13 21:34:00,
2013-06-13 17:43:00,91.0,74.0,29.57,North,0,0.0,6.0,57,0.00,,,0.00,,2013-06-13 21:43:00,
2013-06-13 18:43:00,69.0,67.0,29.62,North,0,0.0,0.0,93,0.16,,,0.16,,2013-06-13 22:43:00,
2013-06-13 18:52:00,69.0,67.0,29.59,North,0,0.0,0.0,94,0.14,,,0.17,,2013-06-13 22:52:00,
2013-06-13 19:02:00,69.0,67.0,29.59,North,0,0.0,0.0,94,0.14,,,0.17,,2013-06-13 23:02:00,
2013-06-13 19:11:00,69.0,68.0,29.57,North,0,0.0,2.0,95,0.03,,,0.17,,2013-06-13 23:11:00,
2013-06-13 19:22:00,69.0,68.0,29.60,SE,140,1.0,3.0,95,0.01,,,0.17,,2013-06-13 23:22:00,
2013-06-13 19:32:00,69.0,68.0,29.62,North,0,0.0,4.0,96,0.01,,,0.17,,2013-06-13 23:32:00,
2013-06-13 19:43:00,69.0,68.0,29.64,North,0,0.0,2.0,95,0.01,,,0.17,,2013-06-13 23:43:00,
2013-06-13 19:52:00,69.0,68.0,29.64,North,0,0.0,2.0,95,0.00,,,0.17,,2013-06-13 23:52:00,
2013-06-13 20:01:00,69.0,68.0,29.64,North,0,0.0,2.0,95,0.00,,,0.17,,2013-06-14 00:01:00,
2013-06-13 20:12:00,69.0,67.0,29.64,North,0,0.0,4.0,94,0.00,,,0.17,,2013-06-14 00:12:00,
2013-06-13 20:22:00,69.0,67.0,29.64,North,0,0.0,2.0,94,0.00,,,0.17,,2013-06-14 00:22:00,
2013-06-13 20:34:00,69.0,67.0,29.64,North,0,0.0,0.0,94,0.00,,,0.17,,2013-06-14 00:34:00,
2013-06-13 20:43:00,69.0,68.0,29.64,North,0,0.0,0.0,95,0.00,,,0.17,,2013-06-14 00:43:00,
2013-06-13 20:53:00,69.0,68.0,29.64,North,0,0.0,0.0,95,0.00,,,0.17,,2013-06-14 00:53:00,
2013-06-13 21:01:00,69.0,68.0,29.64,North,0,0.0,3.0,95,0.00,,,0.17,,2013-06-14 01:01:00,
2013-06-13 21:11:00,69.0,68.0,29.64,North,0,0.0,0.0,95,0.00,,,0.17,,2013-06-14 01:11:00,
2013-06-13 21:22:00,69.0,68.0,29.63,North,0,0.0,0.0,95,0.00,,,0.17,,2013-06-14 01:22:00,
2013-06-13 21:33:00,69.0,68.0,29.64,North,0,0.0,0.0,96,0.00,,,0.17,,2013-06-14 01:33:00,
2013-06-13 21:43:00,69.0,68.0,29.65,North,0,0.0,0.0,96,0.00,,,0.17,,2013-06-14 01:43:00,
2013-06-13 21:52:00,69.0,68.0,29.65,North,0,0.0,0.0,96,0.00,,,0.17,,2013-06-14 01:52:00,
2013-06-13 22:02:00,69.0,68.0,29.64,North,0,0.0,0.0,96,0.00,,,0.17,,2013-06-14 02:02:00,
2013-06-13 22:11:00,69.0,68.0,29.64,North,0,0.0,1.0,96,0.00,,,0.17,,2013-06-14 02:11:00,
2013-06-13 22:22:00,69.0,68.0,29.64,North,0,0.0,0.0,96,0.00,,,0.17,,2013-06-14 02:22:00,
2013-06-13 22:32:00,68.0,67.0,29.65,North,0,0.0,0.0,96,0.00,,,0.17,,2013-06-14 02:32:00,
2013-06-13 22:43:00,68.0,67.0,29.65,North,0,0.0,0.0,96,0.00,,,0.17,,2013-06-14 02:43:00,
2013-06-13 22:52:00,68.0,67.0,29.66,North,0,0.0,0.0,96,0.00,,,0.17,,2013-06-14 02:52:00,
2013-06-13 23:02:00,68.0,67.0,29.66,North,0,0.0,0.0,96,0.00,,,0.17,,2013-06-14 03:02:00,
2013-06-13 23:12:00,68.0,67.0,29.66,North,0,0.0,0.0,97,0.00,,,0.17,,2013-06-14 03:12:00,
2013-06-13 23:22:00,68.0,67.0,29.66,North,0,0.0,0.0,97,0.00,,,0.17,,2013-06-14 03:22:00,
2013-06-13 23:34:00,68.0,67.0,29.66,North,0,0.0,0.0,97,0.00,,,0.17,,2013-06-14 03:34:00,
2013-06-13 23:43:00,68.0,67.0,29.67,North,0,0.0,0.0,97,0.00,,,0.17,,2013-06-14 03:43:00,
2013-06-13 23:53:00,68.0,67.0,29.67,North,0,0.0,0.0,97,0.00,,,0.17,,2013-06-14 03:53:00,